Simultaneous Nadir Overpasses (SNOs) Predictions

Prediction of SNOs between AQUA and NPP Satellite Orbit:

Table of predicted SNOs for the next 14.0 days since TLE Epoch: 2/19/2017
Index Date (AQUA) Time (AQUA) Lat,Lon (AQUA) SZA (AQUA ) Date (NPP) Time (NPP) Lat,Lon (NPP) SZA (NPP ) Distance(km) Time Diff (sec)
1 02/20/2017 05:35:21 65.88, -41.21 118.95 02/20/2017 05:34:08 66.03, -42.21 119.22 48.46 73
2 02/20/2017 06:21:31 -76.46, 145.18 72.06 02/20/2017 06:21:30 -76.46, 145.22 72.07 1.21 1
3 02/20/2017 07:08:50 81.23, -14.52 100.80 02/20/2017 07:10:03 80.91, -13.61 100.61 38.69 73
4 02/22/2017 21:48:53 75.54, 90.56 108.05 02/22/2017 21:47:58 75.53, 90.53 108.11 1.07 55
5 02/22/2017 22:37:59 -76.58, -98.52 73.17 02/22/2017 22:38:21 -76.58, -98.58 73.18 1.61 22
6 02/25/2017 14:05:10 76.19,-151.58 106.31 02/25/2017 14:04:37 76.20,-151.50 106.32 2.42 33
7 02/25/2017 14:54:19 -77.07, 19.12 74.74 02/25/2017 14:55:03 -77.08, 19.20 74.80 2.13 44
8 02/28/2017 06:21:36 76.39, -35.05 105.07 02/28/2017 06:21:26 76.39, -35.02 105.07 0.73 10
9 02/28/2017 07:10:46 -77.22, 135.57 75.94 02/28/2017 07:11:53 -77.22, 135.59 76.00 0.58 67
10 03/02/2017 21:48:58 -75.50, -89.55 74.92 03/02/2017 21:47:54 -75.49, -89.58 74.86 0.97 64




NCC Satellite Simultaneous Nadir Overpasses (SNOs) Prediction Service
